Date,TemperatureHighF,TemperatureAvgF,TemperatureLowF,DewpointHighF,DewpointAvgF,DewpointLowF,HumidityHigh,HumidityAvg,HumidityLow,PressureMaxIn,PressureMinIn,WindSpeedMaxMPH,WindSpeedAvgMPH,GustSpeedMaxMPH,PrecipitationSumIn
2014-1-1,62.3,53.3,47.2,45.8,39.6,31.4,80,61,38,30.24,30.15,4,0,6,0.00
2014-1-2,61.5,54.8,48.9,39.9,37.3,34.1,66,52,38,30.19,30.07,6,1,9,0.00
2014-1-3,60.7,53.7,47.0,47.4,40.6,36.0,95,63,46,30.08,29.98,6,1,6,0.00
2014-1-4,62.9,52.9,43.6,47.3,39.4,27.5,97,64,35,30.10,29.99,5,1,9,0.00
2014-1-5,63.2,55.9,50.7,38.1,28.2,14.3,54,35,20,30.22,30.10,9,2,15,0.00
2014-1-6,58.6,53.4,48.7,41.6,37.7,33.5,68,55,42,30.29,30.18,5,1,8,0.00
2014-1-7,57.3,51.7,47.8,51.0,44.8,35.6,97,78,57,30.24,30.16,8,1,13,0.00
2014-1-8,51.5,49.8,47.5,51.0,49.3,47.0,99,98,97,30.25,30.18,7,1,14,0.01
2014-1-9,52.3,49.7,47.4,50.8,47.5,42.6,99,93,75,30.29,30.21,6,1,16,0.03
2014-1-10,58.9,49.7,45.6,50.3,46.8,43.2,98,90,65,30.33,30.21,3,0,6,0.01
2014-1-11,51.8,49.0,45.3,51.3,48.3,44.1,99,97,93,30.32,30.18,6,0,13,0.08
2014-1-12,55.5,49.7,43.3,48.7,42.7,36.0,99,79,48,30.42,30.29,8,1,13,0.00
2014-1-13,63.4,54.7,47.1,40.1,38.5,35.9,74,55,37,30.49,30.36,9,1,21,0.00
2014-1-14,65.4,57.5,50.8,39.4,35.2,31.0,64,44,29,30.47,30.33,8,1,10,0.00
2014-1-15,69.2,62.1,57.0,36.2,31.0,25.9,44,31,20,30.35,30.21,11,2,15,0.00
2014-1-16,69.6,61.0,53.6,35.1,30.2,19.9,49,33,17,30.24,30.14,5,2,10,0.00
2014-1-17,65.4,58.5,51.9,41.5,37.2,31.1,62,45,36,30.20,30.13,7,2,10,0.00
2014-1-18,66.0,58.3,51.2,39.6,33.9,29.9,59,41,27,30.19,30.08,4,1,8,0.00
2014-1-19,63.1,56.7,49.8,39.0,36.3,31.3,63,47,38,30.15,30.07,9,2,12,0.00
2014-1-20,65.6,57.0,51.0,47.7,35.6,27.9,67,46,30,30.25,30.12,5,1,7,0.00
2014-1-21,65.2,57.0,49.9,36.8,31.3,25.3,55,39,25,30.28,30.18,8,2,12,0.00
2014-1-22,65.0,54.9,48.4,48.2,37.5,26.9,97,56,29,30.19,29.94,5,0,7,0.00
2014-1-23,64.8,54.5,46.0,48.6,38.6,26.4,97,62,24,30.03,29.90,13,1,16,0.00
2014-1-24,64.1,54.0,47.1,49.6,44.9,35.8,97,74,35,30.30,30.03,3,0,5,0.00
2014-1-25,67.4,58.0,51.0,49.6,40.8,31.4,90,56,31,30.30,30.14,5,1,10,0.00
2014-1-26,64.7,54.7,47.0,50.8,44.4,34.3,97,71,39,30.15,30.06,5,1,9,0.00
2014-1-27,57.0,49.8,45.4,50.5,48.1,44.6,98,94,79,30.22,30.09,5,1,9,0.00
2014-1-28,60.1,54.2,50.4,57.2,53.2,49.6,99,97,89,30.30,30.21,6,1,8,0.00
2014-1-29,56.0,53.5,50.0,55.7,53.2,49.7,99,99,99,30.23,30.01,6,1,10,0.05
2014-1-30,52.0,49.9,47.9,50.9,48.5,46.6,99,95,87,30.01,29.89,11,2,19,0.04
2014-1-31,52.7,48.1,44.3,47.1,42.6,38.9,96,82,60,30.11,29.93,11,1,17,0.00
2014-2-1,51.5,46.0,40.9,43.6,39.9,35.7,93,80,55,30.19,30.09,4,1,10,0.00
2014-2-2,48.4,44.6,43.2,47.0,42.9,41.0,96,93,90,30.09,29.86,10,1,17,0.30
2014-2-3,49.8,44.8,39.8,44.4,40.9,38.4,96,86,74,30.11,30.01,11,2,20,0.00
2014-2-4,49.7,44.8,40.1,42.9,40.4,37.4,95,85,68,30.20,30.10,5,1,11,0.00
2014-2-5,48.9,44.6,38.9,44.4,41.0,36.7,96,87,76,30.23,30.08,10,1,12,0.13
2014-2-6,50.3,47.4,44.6,49.3,46.6,43.8,98,97,96,30.08,29.92,7,0,8,0.86
2014-2-7,52.9,50.5,47.7,51.8,49.7,47.2,98,97,95,30.11,30.01,3,0,6,0.47
2014-2-8,56.0,54.5,52.0,55.6,54.0,51.2,99,98,96,30.17,30.06,4,1,10,1.05
2014-2-9,56.3,55.3,53.3,56.0,55.0,53.0,99,99,99,30.17,30.08,6,1,21,1.53
2014-2-10,53.7,51.5,49.9,53.4,51.3,49.6,100,99,98,30.31,30.13,7,1,12,0.09
2014-2-11,52.5,49.1,47.1,52.2,48.8,47.1,100,99,95,30.28,30.21,6,1,8,0.01
2014-2-12,55.1,49.4,45.3,51.9,48.7,45.0,99,97,88,30.31,30.21,4,0,8,0.00
2014-2-13,61.5,54.3,50.4,58.4,53.4,50.1,100,97,87,30.26,30.13,5,1,7,0.02
2014-2-14,58.2,54.2,51.4,56.3,53.3,50.6,100,97,88,30.20,30.08,6,1,8,0.02
2014-2-15,57.2,53.4,50.1,55.4,52.5,49.6,99,97,90,30.08,30.01,6,0,14,0.03
2014-2-16,57.1,51.4,45.5,53.6,46.5,41.4,99,84,60,30.24,30.06,6,1,15,0.02
2014-2-17,55.4,49.9,44.0,49.4,45.9,40.5,98,87,63,30.21,30.11,8,1,14,0.00
2014-2-18,58.5,51.7,46.0,52.3,48.7,43.8,98,90,75,30.23,30.13,13,1,15,0.00
2014-2-19,55.7,51.3,46.9,52.6,47.6,44.4,99,88,68,30.24,30.13,10,2,17,0.01
2014-2-20,63.8,52.4,46.6,47.2,43.0,38.3,94,72,40,30.25,30.13,7,1,11,0.00
2014-2-21,65.5,54.0,48.3,49.8,46.2,42.4,97,76,46,30.14,30.02,7,1,10,0.00
2014-2-22,57.9,50.7,47.2,52.8,48.4,45.9,98,92,81,30.05,29.97,8,1,9,0.00
2014-2-23,57.6,49.3,45.5,51.5,47.5,45.0,98,94,79,30.05,30.00,7,1,8,0.00
2014-2-24,66.1,53.0,45.2,53.9,48.9,44.7,99,87,54,30.03,29.95,4,0,10,0.01
2014-2-25,55.5,50.6,47.6,50.4,48.3,46.8,98,92,83,30.01,29.93,8,1,15,0.00
2014-2-26,55.7,53.6,51.3,55.1,51.9,48.2,98,94,85,29.98,29.69,4,0,10,1.11
2014-2-27,62.4,55.4,51.4,54.4,51.4,48.2,98,87,70,29.93,29.53,5,1,12,0.05
2014-2-28,58.8,53.9,51.2,53.9,51.4,48.2,98,91,74,29.52,29.39,3,0,9,1.05
2014-3-1,63.0,55.1,50.5,55.0,51.5,48.4,96,88,70,29.83,29.48,5,0,8,0.13
2014-3-2,56.8,53.0,49.6,54.8,51.7,48.8,98,95,90,30.18,29.82,7,0,9,0.12
2014-3-3,59.0,53.2,48.6,53.0,50.9,47.8,98,92,78,30.18,30.04,1,0,3,0.29
2014-3-4,59.8,54.5,51.4,56.4,53.2,50.6,99,95,87,30.14,30.07,5,0,8,0.10
2014-3-5,65.6,57.4,52.6,59.3,55.1,52.1,99,92,70,30.13,30.01,4,0,7,0.33
2014-3-6,59.2,54.4,50.8,55.6,53.0,50.2,99,95,83,30.22,30.06,7,1,10,0.01
2014-3-7,60.0,52.5,45.9,51.9,48.7,43.8,99,87,64,30.21,30.14,7,1,10,0.01
2014-3-8,69.0,56.9,48.4,54.6,49.8,44.3,99,79,47,30.23,30.13,7,0,9,0.01
2014-3-9,70.5,60.7,54.9,55.7,51.1,43.2,87,71,52,30.20,30.09,4,1,7,0.00
2014-3-10,62.0,56.3,51.7,54.1,49.9,43.7,97,80,53,30.26,30.11,9,2,14,0.07
2014-3-11,67.6,58.7,53.6,48.4,33.8,27.8,78,40,24,30.22,30.04,13,3,19,0.00
2014-3-12,72.2,62.8,56.1,36.7,29.4,22.7,38,29,21,30.13,30.01,17,4,31,0.00
2014-3-13,69.2,59.7,51.2,51.4,38.1,23.8,93,51,20,30.08,30.01,8,2,14,0.00
2014-3-14,61.8,54.3,50.8,53.3,50.4,48.8,95,87,73,30.25,30.08,8,2,14,0.00
2014-3-15,70.9,57.4,50.0,57.0,51.3,48.1,97,82,50,30.33,30.24,7,1,7,0.00
2014-3-16,60.4,51.9,48.5,53.5,49.9,46.9,99,93,74,30.34,30.23,8,1,21,0.01
2014-3-17,60.9,52.9,47.7,50.8,47.5,45.6,97,83,61,30.25,30.01,12,2,24,0.00
2014-3-18,66.5,55.3,46.9,46.7,37.8,27.5,93,56,26,30.01,29.94,7,1,11,0.00
2014-3-19,72.1,56.8,47.4,48.2,40.9,26.4,87,59,27,30.10,29.99,6,1,10,0.00
2014-3-20,60.3,52.2,47.7,53.6,48.1,43.3,96,86,65,30.08,29.98,8,1,11,0.00
2014-3-21,56.1,50.4,47.3,49.2,46.8,44.4,94,87,76,30.03,29.96,7,2,15,0.00
2014-3-22,56.8,50.5,45.0,50.3,46.8,43.4,94,87,76,30.15,30.00,6,1,11,0.00
2014-3-23,59.1,50.6,47.1,49.7,46.9,44.6,96,87,71,30.20,30.13,8,2,14,0.00
2014-3-24,64.9,51.3,44.6,52.0,47.5,43.5,98,88,60,30.19,30.05,6,1,10,0.00
2014-3-25,57.3,51.9,46.7,54.8,50.4,45.1,98,94,89,30.07,29.88,9,1,10,0.13
2014-3-26,55.7,52.3,47.9,52.9,50.8,46.7,98,95,85,30.00,29.82,10,2,15,0.66
2014-3-27,60.5,54.4,51.2,52.2,50.2,47.9,96,86,66,30.16,30.00,7,1,11,0.00
2014-3-28,66.4,56.6,51.4,54.4,51.8,49.2,96,85,62,30.21,30.13,9,1,15,0.00
2014-3-29,56.0,53.4,48.8,54.9,51.6,46.6,97,93,86,30.15,30.03,7,1,10,0.85
2014-3-30,56.6,51.1,46.0,48.9,46.7,42.3,94,85,68,30.17,30.06,9,2,15,0.01
2014-3-31,54.0,47.7,44.9,48.8,45.1,42.8,96,91,78,30.09,29.83,6,0,17,0.71
2014-4-1,56.6,47.3,43.3,49.3,44.9,42.3,97,92,69,29.96,29.85,8,0,9,0.87
2014-4-2,56.3,49.2,43.3,47.6,44.9,41.2,97,86,59,30.13,29.89,8,1,12,0.00
2014-4-3,57.9,51.1,46.1,49.4,46.8,44.7,96,86,69,30.15,30.06,6,1,12,0.00
2014-4-4,55.4,50.5,47.7,49.8,47.6,46.2,96,90,74,30.08,30.00,9,2,17,0.49
2014-4-5,58.6,52.4,44.4,51.5,47.9,42.8,97,85,71,30.22,30.08,12,2,19,0.00
2014-4-6,72.4,57.7,48.4,55.6,50.6,46.8,95,79,46,30.26,30.13,7,1,11,0.00
2014-4-7,80.0,65.5,53.7,55.5,51.9,47.0,92,64,39,30.17,30.08,9,1,11,0.00
2014-4-8,76.8,60.9,50.0,59.1,52.8,48.4,97,76,51,30.12,30.05,6,1,11,0.00
2014-4-9,55.3,50.6,48.2,52.3,49.4,47.7,98,96,86,30.12,30.02,7,3,11,0.00
2014-4-10,66.9,53.1,47.8,57.7,50.5,47.3,99,92,64,30.07,29.93,7,1,10,0.00
2014-4-11,57.0,51.5,49.1,51.9,49.7,48.5,99,94,82,29.98,29.89,8,2,14,0.00
2014-4-12,56.8,52.9,50.4,50.5,48.9,47.4,93,86,77,29.97,29.89,13,2,16,0.00
2014-4-13,63.2,54.2,50.1,53.6,49.8,47.0,96,86,70,30.07,29.97,8,2,12,0.00
2014-4-14,61.9,52.9,50.1,54.2,50.4,48.9,97,92,75,30.14,30.04,10,2,11,0.00
2014-4-15,59.4,52.7,49.4,52.9,49.6,47.5,97,89,76,30.10,29.94,10,2,12,0.00
2014-4-16,65.0,55.5,47.4,54.6,50.0,46.3,97,83,63,29.95,29.86,8,1,9,0.00
2014-4-17,59.5,53.3,48.5,52.8,49.6,47.4,97,88,74,29.91,29.82,14,2,16,0.00
2014-4-18,56.0,51.2,47.1,51.7,48.5,46.0,97,91,81,29.98,29.89,14,2,16,0.00
2014-4-19,56.8,51.3,47.8,52.7,49.0,46.1,98,92,79,30.15,29.97,12,4,16,0.00
2014-4-20,64.9,59.0,47.6,58.7,53.5,47.1,99,83,71,30.17,30.13,1,1,3,0.00
2014-4-21,64.9,59.1,51.8,56.0,52.7,45.2,96,80,57,30.17,29.99,14,2,14,0.00
2014-4-22,54.9,50.7,47.1,51.1,45.2,40.9,96,82,66,30.15,30.00,17,5,27,0.03
2014-4-23,58.3,52.7,44.3,50.0,44.9,39.3,90,75,55,30.19,30.11,11,2,18,0.00
2014-4-24,57.6,53.5,50.6,54.1,52.0,48.9,98,95,86,30.14,30.00,9,2,12,0.02
2014-4-25,54.1,50.7,47.4,53.5,49.2,43.8,99,95,76,30.01,29.82,13,2,17,0.26
2014-4-26,55.9,50.1,44.0,47.3,44.3,40.7,93,81,61,30.11,29.88,16,3,20,0.00
2014-4-27,57.4,52.5,49.3,53.1,49.6,46.4,97,90,77,30.16,30.04,9,2,16,0.06
2014-4-28,64.2,55.2,46.4,51.8,47.2,42.9,97,76,53,30.25,30.16,8,2,16,0.00
2014-4-29,81.5,66.4,52.8,53.0,46.1,41.3,73,51,26,30.22,30.07,6,1,9,0.00
2014-4-30,89.7,74.2,63.7,51.3,46.6,38.0,62,39,22,30.09,30.02,6,1,9,0.00
2014-5-1,85.1,71.2,59.2,53.7,44.3,35.2,75,40,22,30.11,30.03,10,1,11,0.00
2014-5-2,61.3,53.7,48.5,53.3,51.0,47.0,98,91,60,30.12,30.04,9,2,15,0.00
2014-5-3,59.3,53.6,49.7,53.5,51.4,49.2,98,93,78,30.08,30.02,12,4,18,0.00
2014-5-4,61.0,55.6,52.3,55.4,53.1,51.5,98,91,79,30.10,30.03,13,3,16,0.00
2014-5-5,59.6,54.5,50.5,53.0,50.5,46.3,97,87,71,30.08,29.97,16,4,23,0.00
2014-5-6,61.4,53.4,46.3,50.8,47.3,43.4,92,80,59,29.99,29.90,17,3,22,0.00
2014-5-7,57.6,51.9,45.8,50.2,47.3,44.2,96,85,69,30.03,29.91,13,3,19,0.00
2014-5-8,60.2,54.3,49.6,56.7,52.1,47.3,97,92,87,30.12,30.02,11,2,17,0.04
2014-5-9,58.5,53.8,49.7,54.4,51.2,47.4,99,91,75,30.19,30.11,20,4,26,0.01
2014-5-10,60.1,53.6,48.0,49.1,46.8,44.6,94,79,58,30.17,30.06,16,3,25,0.00
2014-5-11,69.5,59.5,49.2,47.6,42.4,36.2,92,56,31,30.14,30.05,12,3,22,0.00
2014-5-12,80.2,64.2,47.6,54.0,45.3,33.7,93,55,26,30.14,30.06,6,1,10,0.00
2014-5-13,89.5,72.5,62.4,51.5,42.5,34.2,55,35,15,30.14,30.08,7,1,11,0.00
2014-5-14,89.0,74.2,62.0,52.6,42.8,36.6,52,33,20,30.14,30.06,7,1,12,0.00
2014-5-15,76.4,65.5,51.8,54.0,45.0,31.4,92,51,26,30.12,30.06,10,1,13,0.00
2014-5-16,62.6,55.9,50.7,54.4,51.9,49.3,96,87,70,30.11,30.01,18,4,21,0.00
2014-5-17,58.9,53.9,51.0,53.4,51.5,49.8,97,92,81,30.04,29.98,15,4,18,0.00
2014-5-18,60.4,54.6,50.3,54.7,51.6,48.4,97,90,79,30.03,29.97,12,4,20,0.00
2014-5-19,60.8,54.6,50.3,54.3,51.6,48.7,96,90,77,30.01,29.95,13,4,17,0.00
2014-5-20,61.4,55.0,51.2,54.1,51.7,49.8,96,89,73,30.04,29.95,9,3,16,0.00
2014-5-21,60.0,54.5,50.4,53.6,51.3,49.3,96,89,78,30.00,29.95,11,3,14,0.00
2014-5-22,61.0,52.9,49.1,54.4,50.7,48.3,98,92,77,30.06,29.94,9,2,15,0.00
2014-5-23,56.7,52.9,49.3,53.8,51.4,48.8,99,94,87,30.06,29.97,11,2,14,0.01
2014-5-24,58.9,53.1,50.0,53.4,50.8,48.5,98,92,78,30.05,29.97,10,2,15,0.00
2014-5-25,64.9,56.5,48.3,55.5,49.9,47.5,97,80,57,30.02,29.95,9,2,14,0.00
2014-5-26,63.8,56.0,49.3,54.9,51.1,47.4,96,84,71,30.06,29.98,10,2,15,0.00
2014-5-27,61.3,54.0,49.1,51.0,48.5,45.7,95,82,65,30.08,30.01,17,3,19,0.00
2014-5-28,64.0,56.4,47.9,49.3,46.1,40.4,90,70,51,30.10,29.98,9,2,15,0.00
2014-5-29,70.6,57.8,48.5,54.2,49.3,45.8,93,75,45,29.99,29.93,7,1,12,0.00
2014-5-30,54.9,51.3,48.9,50.7,48.8,47.3,95,91,84,30.00,29.92,11,4,15,0.00
2014-5-31,58.6,51.4,48.1,52.4,49.4,47.0,98,93,79,30.01,29.95,10,2,12,0.00
2014-6-1,59.2,51.8,48.3,53.8,49.9,47.5,98,94,80,29.95,29.84,11,2,13,0.00
2014-6-2,56.8,51.7,48.5,53.0,50.3,48.0,98,95,84,29.94,29.85,8,2,19,0.00
2014-6-3,59.1,52.5,48.1,53.3,50.1,47.6,98,91,79,29.98,29.90,8,2,15,0.00
2014-6-4,57.1,51.7,48.4,52.7,49.7,47.6,98,93,83,29.94,29.87,7,2,11,0.00
2014-6-5,56.8,52.5,49.0,53.9,51.3,48.5,99,96,88,29.91,29.84,9,2,18,0.00
2014-6-6,60.2,53.6,49.7,54.1,51.6,48.9,98,93,80,29.89,29.83,10,2,15,0.00
2014-6-7,58.9,53.3,49.1,53.4,50.9,48.6,98,92,80,29.88,29.82,14,3,14,0.00
2014-6-8,78.8,61.6,50.0,62.4,54.4,49.5,99,80,44,29.86,29.76,9,2,9,0.00
2014-6-9,62.8,56.8,52.3,57.8,53.9,51.0,97,90,79,29.80,29.73,15,3,15,0.00
2014-6-10,59.6,55.3,53.2,56.1,53.9,52.4,98,95,86,29.86,29.75,21,4,21,0.00
2014-6-11,60.7,56.1,52.0,56.3,53.7,50.3,97,92,85,29.93,29.84,16,4,16,0.00
2014-6-12,59.3,53.3,49.8,54.1,51.0,48.9,98,92,81,30.02,29.92,19,6,19,0.00
2014-6-13,66.6,57.0,51.0,55.2,52.2,50.2,98,85,65,30.02,29.95,11,2,18,0.00
2014-6-14,72.4,57.6,49.8,58.6,52.0,48.4,97,83,56,29.96,29.85,11,2,16,0.00
2014-6-15,60.9,54.0,50.3,53.4,50.7,48.9,95,89,75,29.87,29.81,12,4,17,0.00
2014-6-16,57.7,53.3,49.7,51.8,49.6,47.2,96,88,75,29.94,29.84,13,5,20,0.00
2014-6-17,65.2,55.7,46.9,52.5,49.0,45.0,95,80,57,30.00,29.90,11,2,12,0.00
2014-6-18,77.7,59.1,48.9,57.7,51.3,47.6,97,78,39,29.98,29.93,7,1,14,0.00
2014-6-19,59.9,54.2,50.6,53.5,51.0,48.9,95,89,78,30.04,29.96,14,3,17,15.07
2014-6-20,65.2,56.9,51.3,55.6,52.4,49.4,96,85,70,30.02,29.95,9,2,15,0.00
2014-6-21,56.8,53.0,50.7,52.3,50.1,48.8,94,90,84,29.96,29.91,15,5,19,0.00
2014-6-22,57.2,53.0,50.6,52.4,50.3,48.9,96,91,82,29.99,29.91,11,3,17,0.00
2014-6-23,62.9,54.8,49.8,54.7,51.0,49.0,98,88,69,30.00,29.94,15,2,15,0.00
2014-6-24,61.7,56.1,51.3,56.6,53.1,49.4,97,90,77,30.05,29.97,17,3,25,0.00
2014-6-25,56.9,54.9,52.6,56.3,54.4,52.1,99,98,97,30.04,29.97,13,4,16,0.00
2014-6-26,61.1,56.2,53.6,58.3,55.2,53.3,99,97,86,30.03,29.98,10,3,15,0.02
2014-6-27,62.9,57.0,53.4,60.2,56.2,53.1,99,97,90,30.03,29.96,8,3,14,0.00
2014-6-28,65.1,57.4,52.8,58.9,54.4,51.7,99,90,71,29.99,29.93,16,3,21,0.00
2014-6-29,71.1,59.3,51.2,62.3,53.8,50.4,98,83,61,29.96,29.86,9,1,14,0.00
2014-6-30,77.8,59.7,52.2,62.0,54.6,50.8,97,84,54,29.87,29.82,10,2,17,0.00
2014-7-1,60.5,55.4,53.3,56.6,54.1,52.8,99,96,87,29.89,29.82,7,2,18,0.00
2014-7-2,59.4,55.0,52.4,57.0,53.8,51.9,99,96,86,29.93,29.86,11,3,16,0.00
2014-7-3,60.6,55.3,52.2,55.2,53.0,51.4,98,92,81,29.98,29.91,11,3,19,0.00
2014-7-4,57.1,53.8,51.7,53.8,52.2,50.9,98,95,87,30.03,29.92,9,2,15,0.00
2014-7-5,60.3,54.2,51.7,55.6,52.7,51.2,98,95,82,30.11,30.03,9,2,12,0.00
2014-7-6,60.6,54.1,50.7,56.6,52.8,50.4,99,95,84,30.09,29.97,9,2,16,0.00
2014-7-7,59.9,54.6,51.8,56.6,53.6,51.3,99,97,87,29.97,29.88,11,2,14,0.00
2014-7-8,59.5,55.3,53.1,56.8,54.2,52.8,99,96,89,29.97,29.88,11,2,14,0.00
2014-7-9,64.6,57.7,54.0,58.5,55.3,53.4,99,92,78,29.98,29.89,10,2,21,0.00
2014-7-10,65.7,59.4,55.3,58.4,56.2,54.5,97,90,76,29.96,29.90,9,2,20,0.00
2014-7-11,65.4,58.9,54.6,57.7,55.7,54.0,98,90,74,30.10,29.96,8,2,13,0.00
2014-7-12,60.8,57.5,53.9,56.9,55.0,53.2,98,92,84,30.12,30.05,11,3,15,0.00
2014-7-13,62.0,56.0,52.9,57.7,54.7,52.5,99,96,85,30.06,29.92,9,3,13,0.00
2014-7-14,65.3,57.4,54.0,58.9,55.2,53.4,98,93,78,29.97,29.88,10,2,14,0.00
2014-7-15,68.0,59.4,54.2,64.5,58.1,53.6,99,96,82,30.04,29.93,8,2,15,0.00
2014-7-16,66.4,60.4,57.3,62.9,58.7,57.0,99,94,82,30.06,29.99,13,3,17,0.04
2014-7-17,63.1,59.5,58.0,59.8,58.0,57.0,98,95,88,30.04,29.98,9,2,14,0.00
2014-7-18,64.2,58.9,56.7,59.0,57.4,56.1,99,95,83,30.05,29.97,15,2,15,0.05
2014-7-19,63.7,59.6,57.1,59.3,57.7,56.5,98,94,84,29.99,29.96,13,2,15,0.00
2014-7-20,63.7,59.5,56.7,61.2,58.4,56.4,99,96,89,30.03,29.94,10,3,13,0.00
2014-7-21,65.2,61.1,59.2,62.1,59.5,57.9,98,95,85,30.09,30.00,9,2,13,0.04
2014-7-22,69.6,63.2,58.5,62.4,60.0,57.9,99,90,72,30.13,30.01,7,2,17,0.08
2014-7-23,69.6,63.2,59.2,63.6,60.4,57.9,96,91,80,30.17,30.06,10,2,16,0.00
2014-7-24,74.7,63.4,56.6,62.4,58.3,56.0,99,85,57,30.07,29.87,7,1,10,0.00
2014-7-25,85.0,65.7,56.2,64.0,58.3,55.2,98,79,46,29.91,29.85,7,1,11,0.00
2014-7-26,65.9,59.9,56.8,60.0,56.9,54.7,96,90,78,29.98,29.90,10,2,14,0.00
2014-7-27,66.4,60.1,56.7,60.0,57.2,55.3,96,90,78,30.02,29.96,10,3,13,0.00
2014-7-28,62.1,58.4,55.9,58.2,56.4,55.1,98,93,86,30.08,30.00,10,3,15,0.00
2014-7-29,64.1,58.4,55.6,58.6,56.4,55.0,98,93,81,30.08,30.01,10,3,14,0.00
2014-7-30,63.4,56.7,54.6,59.0,55.6,54.0,99,96,85,30.05,29.98,12,3,13,0.00
2014-7-31,59.3,56.1,54.4,57.9,55.5,54.1,99,98,93,30.02,29.92,11,3,13,0.00
2014-8-1,59.6,56.5,54.9,57.3,55.8,54.6,99,98,91,29.97,29.91,12,3,15,0.00
2014-8-2,58.7,55.5,53.9,57.1,54.9,53.6,99,98,91,29.99,29.92,9,4,17,0.00
2014-8-3,59.0,56.0,54.2,56.2,55.0,53.9,99,97,89,30.01,29.94,12,2,16,0.00
2014-8-4,65.2,58.4,54.7,59.2,56.6,54.1,99,94,81,30.03,29.96,8,2,13,0.00
2014-8-5,66.9,59.4,57.3,61.0,57.6,56.2,97,94,80,30.10,30.02,9,1,13,0.00
2014-8-6,66.6,59.8,55.9,62.2,58.0,55.3,99,94,82,30.06,29.98,8,2,15,0.01
2014-8-7,60.1,56.7,54.7,57.3,55.5,54.1,99,96,89,30.01,29.92,9,2,16,0.00
2014-8-8,64.3,58.0,54.6,58.5,55.1,53.5,97,90,78,29.97,29.90,8,2,16,0.00
2014-8-9,56.5,55.0,53.9,55.1,53.9,53.0,98,96,93,30.00,29.91,14,3,20,0.00
2014-8-10,65.6,58.7,54.5,59.1,56.3,53.8,98,92,77,30.05,29.95,16,2,16,0.01
2014-8-11,66.5,60.6,57.4,59.4,57.2,55.7,95,89,76,29.99,29.93,10,2,13,0.00
2014-8-12,66.7,60.8,56.8,59.6,57.0,55.1,95,88,74,30.02,29.94,9,2,13,0.00
2014-8-13,66.8,59.9,56.3,59.3,56.5,54.1,97,89,76,30.04,29.95,8,3,13,0.00
2014-8-14,63.1,57.9,54.9,59.2,56.4,54.3,99,95,85,30.00,29.93,10,2,13,0.00
2014-8-15,65.4,59.2,55.5,59.9,57.2,55.2,99,93,80,30.04,29.96,10,2,16,0.00
2014-8-16,64.1,58.5,55.8,59.5,56.8,54.9,99,94,84,30.08,29.99,9,2,17,0.00
2014-8-17,62.5,57.3,54.4,58.9,56.0,53.3,99,96,87,30.06,29.94,7,2,12,0.00
2014-8-18,58.5,56.3,55.0,57.4,55.9,54.7,99,98,95,29.94,29.84,11,3,16,0.01
2014-8-19,64.2,59.3,55.7,61.7,58.1,55.4,99,96,87,29.90,29.84,10,2,13,0.04
2014-8-20,63.7,59.8,57.6,59.8,58.3,56.9,98,95,85,29.97,29.87,12,2,16,0.00
2014-8-21,67.2,60.6,57.2,61.2,58.4,56.6,99,93,80,30.00,29.92,8,2,13,0.00
2014-8-22,65.0,59.2,56.7,60.0,57.7,56.0,99,95,84,29.97,29.92,9,2,15,0.00
2014-8-23,67.3,60.9,56.8,59.2,57.1,54.9,97,88,73,29.99,29.88,7,2,15,0.00
2014-8-24,66.4,60.8,57.1,59.5,57.0,55.1,94,87,75,29.93,29.84,9,3,14,0.00
2014-8-25,65.3,60.6,58.2,58.7,56.7,55.3,93,87,77,29.98,29.86,11,2,14,0.00
2014-8-26,67.4,61.9,56.9,59.1,57.1,54.1,94,85,72,30.04,29.97,7,2,12,0.00
2014-8-27,68.4,61.8,57.4,61.1,58.7,56.3,97,90,76,30.09,30.02,7,2,14,0.00
2014-8-28,65.7,59.4,56.8,60.9,57.6,55.7,98,94,82,30.10,29.97,9,2,14,0.00
2014-8-29,67.3,59.4,56.6,64.7,58.3,56.3,99,96,85,29.99,29.91,10,2,13,0.00
2014-8-30,69.0,62.6,58.8,62.3,59.8,58.2,98,91,77,29.95,29.88,10,3,14,0.00
2014-8-31,66.9,61.5,57.7,60.9,58.5,55.6,98,90,79,29.96,29.86,11,3,13,0.00
2014-9-1,74.9,63.3,56.5,64.1,58.5,55.3,98,85,63,29.88,29.79,6,1,11,0.00
2014-9-2,62.1,58.7,56.5,59.3,57.4,55.7,98,95,90,29.88,29.80,11,3,17,0.00
2014-9-3,68.7,60.5,57.0,61.0,57.7,56.1,97,91,73,29.83,29.74,10,2,13,0.00
2014-9-4,66.2,59.8,57.0,59.9,57.5,56.2,98,92,79,29.82,29.73,13,2,16,0.00
2014-9-5,64.5,59.5,56.8,58.8,56.6,55.1,96,90,81,29.94,29.82,7,2,14,0.00
2014-9-6,65.1,59.2,56.5,57.0,55.3,53.9,94,87,75,30.00,29.91,8,2,13,0.00
2014-9-7,64.0,58.6,55.9,56.7,54.7,53.3,92,87,76,29.93,29.83,9,3,15,0.00
2014-9-8,60.9,56.9,54.5,54.6,52.9,51.3,91,87,76,29.97,29.87,13,3,16,0.00
2014-9-9,63.8,58.2,56.0,58.0,55.4,53.7,97,91,80,30.03,29.93,7,2,16,0.00
2014-9-10,80.3,61.8,55.1,63.5,57.7,54.3,98,88,55,29.97,29.87,9,1,11,0.00
2014-9-11,76.2,59.4,55.1,71.1,57.5,54.5,99,94,66,29.93,29.85,8,2,13,0.00
2014-9-12,65.9,58.9,55.3,60.7,57.1,55.0,99,94,79,29.93,29.83,7,2,12,0.00
2014-9-13,66.0,59.1,56.3,60.6,57.3,55.7,99,94,81,29.88,29.81,11,3,13,0.00
2014-9-14,68.4,60.5,56.5,61.0,57.3,55.4,97,90,74,29.90,29.83,8,2,12,0.00
2014-9-15,69.9,61.9,57.6,60.5,58.7,56.5,97,90,66,29.95,29.86,10,3,15,0.00
2014-9-16,72.5,63.2,57.7,62.5,59.8,57.1,98,89,68,29.96,29.83,7,2,11,0.00
2014-9-17,72.4,65.0,59.4,64.2,60.2,57.4,96,85,68,29.84,29.77,8,1,11,0.00
2014-9-18,73.1,66.4,61.4,66.0,63.6,60.5,97,91,75,29.91,29.79,8,1,11,0.02
2014-9-19,64.6,61.6,60.0,62.4,60.5,59.2,98,97,92,29.94,29.88,7,2,11,0.00
2014-9-20,63.1,60.8,59.0,60.9,59.6,58.7,99,96,91,29.97,29.90,9,2,14,0.00
2014-9-21,64.3,61.9,60.3,61.5,59.8,58.6,96,93,90,30.04,29.95,7,2,12,0.00
2014-9-22,68.2,62.6,58.4,60.8,58.9,56.4,97,88,76,30.06,29.98,8,2,15,0.00
2014-9-23,67.6,62.8,59.6,63.3,60.9,58.2,99,94,86,30.03,29.95,6,2,11,0.02
2014-9-24,70.1,64.4,60.3,66.7,63.0,59.6,99,96,84,29.98,29.90,5,1,9,0.08
2014-9-25,67.5,61.1,55.7,61.8,58.9,55.4,99,93,73,30.04,29.91,8,1,13,0.52
2014-9-26,66.7,61.7,58.0,60.7,59.0,57.1,98,91,80,30.02,29.93,17,2,23,0.00
2014-9-27,66.0,60.3,56.0,60.0,57.6,55.1,98,91,78,29.95,29.84,9,2,15,0.00
2014-9-28,65.0,60.2,56.1,60.0,57.7,55.1,97,91,82,29.99,29.83,6,1,10,0.00
2014-9-29,61.8,58.4,55.8,58.5,56.8,55.2,98,95,88,30.06,29.98,6,2,12,0.00
2014-9-30,67.1,59.5,56.3,59.9,57.2,53.7,99,92,75,30.01,29.87,5,1,9,0.00
2014-10-1,78.1,67.7,56.6,56.7,47.0,35.6,92,50,27,29.95,29.87,9,2,12,0.00
2014-10-2,85.9,72.9,60.3,56.2,44.5,36.0,82,40,21,30.05,29.95,6,1,12,0.00
2014-10-3,89.3,76.3,68.4,51.9,44.6,33.8,52,34,16,30.10,30.02,5,2,9,0.00
2014-10-4,87.8,73.0,59.4,55.1,44.0,34.0,84,38,21,30.05,29.94,6,1,7,0.00
2014-10-5,77.3,65.1,54.6,60.1,52.3,37.5,97,66,36,29.98,29.90,4,0,6,0.00
2014-10-6,71.1,58.2,53.3,62.9,56.0,52.8,99,93,67,29.96,29.88,6,1,8,0.00
2014-10-7,61.3,56.0,53.5,57.7,55.0,53.2,99,96,87,29.97,29.89,8,2,12,0.00
2014-10-8,63.2,56.8,52.0,57.9,55.5,51.7,100,96,82,29.96,29.90,7,1,10,0.01
2014-10-9,57.7,55.4,54.2,56.9,54.9,53.7,99,98,95,30.02,29.93,7,3,14,0.00
2014-10-10,57.7,55.2,53.9,56.4,54.5,53.6,99,97,91,30.10,30.02,9,2,14,0.00
2014-10-11,67.4,57.0,52.6,60.9,55.4,52.3,99,95,76,30.09,29.99,9,1,10,0.00
2014-10-12,80.8,71.4,56.4,58.4,46.9,26.7,99,48,16,30.02,29.92,10,1,11,0.00
2014-10-13,76.2,65.8,57.1,57.8,45.9,26.7,98,58,16,29.99,29.92,8,1,12,0.00
2014-10-14,67.8,60.5,55.0,58.8,56.9,54.2,98,88,72,29.96,29.83,5,1,11,0.00
2014-10-15,64.6,60.1,54.8,59.6,57.3,52.6,95,91,82,30.06,29.88,4,1,9,0.00
2014-10-16,63.3,57.4,52.6,56.8,53.8,50.3,97,88,69,30.06,29.95,6,1,9,0.01
2014-10-17,70.8,61.5,53.9,58.9,54.3,50.1,98,78,58,30.00,29.93,5,0,9,0.00
2014-10-18,71.9,63.2,58.9,60.4,58.2,56.3,95,85,61,30.01,29.91,7,1,9,0.00
2014-10-19,65.4,60.0,56.4,63.1,58.6,55.8,99,95,86,29.94,29.88,6,1,11,0.01
2014-10-20,63.8,59.4,56.1,59.2,57.0,54.4,98,92,80,30.08,29.92,6,1,11,0.14
2014-10-21,61.8,57.1,51.7,55.8,52.2,48.9,94,84,65,30.13,30.04,10,2,16,0.01
2014-10-22,65.0,58.7,53.2,58.5,54.6,49.9,96,87,73,30.11,30.05,7,1,9,0.00
2014-10-23,68.8,61.3,57.5,61.6,58.9,56.7,98,92,71,30.10,29.98,4,0,8,0.00
2014-10-24,63.0,59.0,54.9,59.1,56.5,53.5,95,92,85,30.00,29.91,7,1,9,0.01
2014-10-25,65.2,61.0,56.7,60.6,58.0,55.3,97,90,81,30.16,29.91,7,1,12,0.29
2014-10-26,62.4,56.8,51.5,56.4,51.2,45.0,97,82,54,30.20,30.07,13,1,16,0.01
2014-10-27,62.2,55.3,49.5,53.8,51.3,47.3,97,87,66,30.10,30.04,7,1,10,0.00
2014-10-28,65.2,57.6,51.6,57.2,53.4,49.8,97,87,62,30.15,30.08,9,1,11,0.01
2014-10-29,75.3,64.5,56.3,57.5,53.5,48.4,97,71,39,30.14,30.00,7,1,10,0.00
2014-10-30,68.8,62.0,58.0,59.2,55.2,51.1,96,80,56,29.99,29.89,6,0,10,0.00
2014-10-31,59.3,57.1,54.6,57.5,54.7,51.1,97,92,86,29.92,29.74,8,0,13,0.24
2014-11-1,58.5,55.2,51.4,53.6,50.7,48.6,92,85,75,30.06,29.75,12,2,19,0.00
2014-11-2,59.8,54.1,49.9,51.2,47.9,44.0,91,80,58,30.20,30.06,6,1,11,0.00
2014-11-3,61.9,55.6,49.9,54.5,51.8,46.1,97,88,62,30.29,30.18,6,0,9,0.00
2014-11-4,65.5,57.0,51.1,54.8,52.0,47.9,98,85,54,30.35,30.25,5,0,7,0.01
2014-11-5,71.6,63.3,57.0,52.5,50.6,47.1,80,64,47,30.26,30.10,7,1,11,0.00
2014-11-6,66.9,59.2,54.0,58.4,54.2,49.5,96,84,64,30.24,30.16,6,1,12,0.00
2014-11-7,60.3,56.3,52.3,58.9,55.4,51.2,99,97,92,30.25,30.12,3,0,6,0.01
2014-11-8,73.1,63.1,56.2,57.3,55.1,51.7,98,77,49,30.15,30.03,9,2,10,0.01
2014-11-9,63.6,56.2,52.0,59.3,54.8,50.8,98,95,83,30.05,29.84,5,0,8,0.00
2014-11-10,57.4,54.5,51.3,57.1,53.8,51.0,99,98,95,29.88,29.82,8,1,10,0.01
2014-11-11,60.8,55.8,52.8,53.9,52.1,50.6,96,88,70,29.99,29.87,5,0,10,0.00
2014-11-12,60.6,57.0,53.9,52.1,49.5,47.7,92,76,65,30.05,29.98,4,0,9,0.04
2014-11-13,59.3,57.4,53.9,58.7,56.5,51.8,98,97,92,30.10,29.93,5,1,10,0.37
2014-11-14,59.3,56.4,51.4,56.7,55.1,50.9,99,95,90,30.13,30.08,5,1,11,0.00
2014-11-15,60.4,54.9,49.7,55.2,52.3,48.9,98,91,76,30.21,30.10,6,0,10,0.00
2014-11-16,60.5,56.0,53.2,51.7,35.7,26.5,92,50,28,30.28,30.20,10,2,14,0.00
2014-11-17,62.6,54.9,47.5,44.8,38.1,28.2,86,55,32,30.27,30.12,8,1,12,0.00
2014-11-18,62.0,55.3,51.5,47.5,44.9,40.8,78,68,50,30.15,30.06,7,1,10,0.00
2014-11-19,59.2,55.6,51.4,57.4,52.7,43.8,98,90,63,30.16,30.00,3,0,7,0.33
2014-11-20,56.4,53.7,50.7,55.8,53.2,50.2,99,98,97,30.14,29.97,2,0,9,0.50
2014-11-21,60.0,54.4,51.1,55.4,52.8,50.8,99,95,81,30.15,30.05,3,0,7,0.00
2014-11-22,60.2,57.3,51.4,59.9,55.4,47.3,99,94,77,30.27,30.07,10,2,17,0.46
2014-11-23,61.6,54.4,49.5,48.8,44.7,36.8,88,71,40,30.36,30.26,5,1,11,0.00
2014-11-24,62.0,54.2,47.9,49.3,44.4,36.0,90,71,38,30.44,30.33,5,0,6,0.00
2014-11-25,61.2,55.5,50.2,51.5,48.1,44.3,87,76,67,30.48,30.34,8,2,11,0.00
2014-11-26,63.8,57.1,51.0,51.2,49.3,47.5,90,76,62,30.34,30.21,6,1,9,0.00
2014-11-27,64.6,56.1,49.9,52.6,50.4,47.4,97,82,61,30.21,30.07,3,0,6,0.00
2014-11-28,57.3,52.4,46.8,54.5,50.9,46.0,99,95,85,30.08,29.88,6,0,10,0.03
2014-11-29,63.1,57.8,54.3,60.0,56.1,53.2,98,94,85,29.88,29.77,2,0,5,0.21
2014-11-30,57.3,54.5,50.6,56.2,53.5,49.5,98,96,91,30.05,29.75,2,0,11,0.80
2014-12-1,62.2,57.3,54.5,57.7,55.7,53.1,99,94,83,30.13,29.95,4,0,8,0.00
2014-12-2,57.7,54.9,53.3,57.4,54.3,52.7,99,98,95,29.97,29.69,7,1,10,1.86
2014-12-3,61.4,58.7,55.4,60.1,58.0,54.8,99,98,93,29.90,29.71,3,0,7,2.07
2014-12-4,63.5,58.4,54.4,60.7,57.5,53.8,99,97,88,30.04,29.89,5,0,6,0.03
2014-12-5,63.0,58.9,55.5,60.9,57.9,54.9,99,97,92,30.09,29.98,2,0,4,0.07
2014-12-6,63.4,58.7,55.6,61.2,57.7,55.0,99,96,88,30.24,30.09,4,0,9,0.16
2014-12-7,61.7,57.0,55.0,59.3,56.1,54.5,99,97,87,30.23,30.13,2,0,7,0.01
2014-12-8,65.7,59.1,54.4,60.8,57.1,53.8,98,93,81,30.20,30.14,2,0,6,0.00
2014-12-9,62.1,58.3,54.7,59.7,57.3,54.1,99,97,90,30.22,30.09,2,0,9,0.03
2014-12-10,62.6,58.7,55.3,58.7,56.8,55.0,99,94,86,30.08,29.72,2,0,4,0.00
2014-12-11,62.0,54.9,48.7,59.4,53.7,48.4,99,96,86,29.73,29.51,8,0,14,4.07
2014-12-12,52.8,49.2,46.4,52.5,49.0,46.1,100,99,98,30.10,29.67,3,0,5,0.23
2014-12-13,52.7,48.9,47.4,49.6,48.0,45.9,100,97,88,30.25,30.10,6,0,7,0.01
2014-12-14,57.3,50.3,46.6,50.5,47.6,45.0,97,91,76,30.17,30.00,3,0,5,0.21
2014-12-15,52.8,50.1,47.7,52.5,49.7,47.2,99,98,96,30.00,29.84,9,0,10,1.51
2014-12-16,56.8,50.8,47.8,54.8,50.1,47.3,100,97,84,29.97,29.83,5,0,12,1.30
2014-12-17,55.4,50.7,48.4,52.8,49.3,47.9,99,95,81,30.11,29.96,4,0,8,0.37
2014-12-18,57.2,52.2,49.3,54.3,51.0,48.8,99,96,88,30.21,30.07,2,0,4,0.08
2014-12-19,55.5,53.9,52.4,55.2,53.4,51.3,99,98,96,30.19,30.12,2,0,4,1.30
2014-12-20,58.6,55.5,52.8,57.6,54.7,52.5,100,97,91,30.27,30.14,2,0,7,0.12
2014-12-21,58.8,57.6,55.1,58.8,57.6,55.1,100,100,99,30.34,30.25,9,2,15,0.06
2014-12-22,59.9,56.2,52.6,58.2,55.7,52.6,100,98,92,30.31,30.20,3,0,5,0.01
2014-12-23,62.9,56.5,53.1,56.2,54.0,52.4,99,92,70,30.25,30.14,5,0,6,0.01
2014-12-24,57.2,52.6,45.5,55.0,50.0,37.9,99,91,70,30.14,29.98,21,2,33,0.10
2014-12-25,53.7,48.7,44.1,39.1,36.4,34.0,80,63,50,30.18,30.09,12,2,16,0.00
2014-12-26,54.8,49.5,45.7,37.5,33.1,30.0,68,53,43,30.29,30.12,13,2,17,0.00
2014-12-27,51.2,46.8,43.4,41.5,37.4,33.7,85,70,54,30.40,30.28,5,1,10,0.00
2014-12-28,52.8,47.9,43.1,49.4,44.7,41.1,96,89,75,30.40,30.25,5,0,8,0.00
2014-12-29,50.6,47.0,42.0,46.6,42.9,37.5,98,86,67,30.25,30.13,9,1,14,0.00
2014-12-30,50.6,45.7,40.9,39.7,28.1,18.0,84,53,29,30.28,30.13,22,5,28,0.00
2014-12-31,54.2,47.0,42.7,41.7,21.4,11.1,78,38,19,30.29,30.09,14,2,24,0.00
2015-1-1,51.0,44.7,39.1,34.9,26.8,20.8,76,50,31,30.19,30.09,6,1,10,0.00
2015-1-2,48.7,43.4,39.0,37.4,34.8,30.3,87,73,50,30.24,30.14,7,1,10,0.00